Regional Weather Roundup
Issued by NWS

Home | Current Version | Previous Version | Text Only | Print | Product List | Glossary Off
Versions: 1 2 3 4 5 6 7 8 9 10 11 12 13 14 15 16 17 18 19 20 21 22 23 24 25 26 27 28 29 30 31 32 33 34 35 36 37 38 39 40 41 42 43 44 45 46 47 48 49 50

000
ASUS43 KLSX 270459
RWRMO

WEATHER SUMMARY FOR MISSOURI
NATIONAL WEATHER SERVICE SPRINGFIELD MO
1100 PM CST WED NOV 26 2014

NOTE: "FAIR" INDICATES FEW OR NO CLOUDS BELOW 12,000 FEET WITH NO
       SIGNIFICANT WEATHER AND/OR OBSTRUCTIONS TO VISIBILITY.
       CURRENT SKY AND/OR WEATHER CONDITIONS ARE NOT AVAILABLE FOR
       CHILLICOTHE AND FARMINGTON.

MOZ001>031-035>038-043-044-053-054-270600-
...NORTHERN AND WESTERN MISSOURI...

CITY           SKY/WX    TMP DP  RH WIND       PRES   REMARKS
KANSAS CTY INT CLOUDY    27  21  78 N14       30.39R WCI  16
KANSAS C DTWN  CLOUDY    30  22  72 NW14G24   30.39R WCI  19
LEE`S SUMMIT   CLOUDY    29  22  75 NW15G22   30.37R WCI  18
ST JOSEPH      CLOUDY    27  21  78 N17       30.41R WCI  14
CHILLICOTHE      N/A     31  26  82 NW8       30.35R WCI  23
KIRKSVILLE     CLOUDY    29  26  89 N10       30.29R FOG     WCI  20

$$
MOZ066>068-077>081-088>096-101>105-270600-
...SOUTHWEST MISSOURI...

CITY           SKY/WX    TMP DP  RH WIND       PRES   REMARKS
SPRINGFIELD    CLOUDY    33  24  69 NW18G29   30.29R WCI  22
JOPLIN         CLOUDY    33  24  69 N15       30.38R WCI  23

$$
MOZ032>034-039>042-045>050-055>058-069>072-270600-
...CENTRAL MISSOURI...

CITY           SKY/WX    TMP DP  RH WIND       PRES   REMARKS
COLUMBIA       CLOUDY    33  30  88 NW13      30.25R WCI  24
JEFFERSON CITY CLOUDY    34  29  82 NW13G22   30.26R WCI  25
ROLLA          CLOUDY    31  28  89 NW21G26   30.20R WCI  18
SEDALIA        CLOUDY    32  27  81 NW15G26   30.31R WCI  22
OSAGE BEACH    CLOUDY    34  25  69 NW8       30.28R WCI  27

$$
MOZ051-052-059>065-270600-
...EAST CENTRAL MISSOURI...

CITY           SKY/WX    TMP DP  RH WIND       PRES   REMARKS
ST LOUIS INTL  LGT SNOW  34  32  92 N8        30.17R FOG     WCI  27
SPIRIT OF STL  CLOUDY    34  32  92 NW9       30.17R WCI  27
ST CHARLES     CLOUDY    33  31  92 N12       30.18R FOG     WCI  24

$$
MOZ072>076-082>087-097>100-106>115-270600-
...SOUTH CENTRAL AND SOUTHEAST MISSOURI...

CITY           SKY/WX    TMP DP  RH WIND       PRES   REMARKS
CAPE GIRARDEAU CLOUDY    37  36  96 W6        30.14R
FARMINGTON     MOCLDY    34  30  86 W13G26    30.15R WCI  25
POPLAR BLUFF   CLOUDY    39  32  76 NW7       30.15R
WEST PLAINS    CLOUDY    35  26  69 NW22G31   30.20R WCI  23

$$


USA.gov is the U.S. government's official web portal to all federal, state and local government web resources and services.